Weather History for CYYG - December, 2012

Change the Weather History Date:

Thursday, December 20, 2012

  Actual Average Record
Temperature  
Mean Temperature 32 °F -  
Max Temperature 35 °F 28 °F 53 °F (1996)
Min Temperature 28 °F 12 °F 8 °F (2007)
Degree Days  
Heating Degree Days 32    
Moisture  
Dew Point 29 °F    
Average Humidity 87    
Maximum Humidity 100    
Minimum Humidity 60    
Precipitation  
Precipitation 0.02 in 0.15 in - ()
Sea Level Pressure  
Sea Level Pressure 30.08 in    
Wind  
Wind Speed 10 mph ()    
Max Wind Speed 17 mph    
Max Gust Speed 21 mph    
Visibility 13.8 miles    
Events Snow    
Averages and records for this station are not official NWS values.
T = Trace of Precipitation, MM = Missing Value Source: Averaged Metar Reports

Daily Weather History Graph

Daily Weather History Graph

Search for Another Location

Airport or City:

Trip Planner

Search our weather history database for the weather conditions in past years. The results will help you decide how hot, cold, wet, or windy it might be!

Date:

Astronomy

Dec. 20, 2012 Rise Set
Actual Time 7:52 AM AST 4:28 PM AST
Civil Twilight 7:17 AM AST 5:03 PM AST
Nautical Twilight 6:39 AM AST 5:41 PM AST
Astronomical Twilight 6:02 AM AST 6:18 PM AST
Moon 12:01 PM AST (12/20) 12:15 AM AST (12/20)
Length of Visible Light 9h 46m
Length of Day
8h 36m
First Quarter, 54% of the Moon is Illuminated
Dec 20
First Quarter
Dec 28
Full
Jan 4
Last Quarter
Jan 11
New
Jan 18
First Quarter

Hourly Weather History & Observations

Time (AST) Temp. Windchill Dew Point Humidity Pressure Visibility Wind Dir Wind Speed Gust Speed Precip Events Conditions
12:00 AM 32.0 °F 20.8 °F 30.2 °F 93% 29.89 in 10.0 mi NNE 17.3 mph - N/A Snow Light Snow Showers
1:00 AM 33.8 °F 23.2 °F 30.2 °F 87% 29.91 in 15.0 mi NNE 17.3 mph - N/A Snow Light Snow Showers
2:00 AM 33 °F - 31 °F 87% 29.93 in 15 mi NNE 17.3 mph - - Snow Light Snow Showers
3:00 AM 32.0 °F 22.1 °F 30.2 °F 93% 29.95 in 10.0 mi NNE 13.8 mph - N/A Snow Light Snow Showers
4:00 AM 32.0 °F 22.1 °F 28.4 °F 87% 29.97 in 15.0 mi NNE 13.8 mph 20.7 mph N/A Snow Light Snow Showers
5:00 AM 32.0 °F 23.0 °F 26.6 °F 80% 29.99 in 15.0 mi NNE 11.5 mph - N/A Snow Light Snow Showers
6:00 AM 32.0 °F 23.0 °F 26.6 °F 80% 30.00 in 15.0 mi North 11.5 mph - N/A   Overcast
7:00 AM 32.0 °F 23.6 °F 26.6 °F 80% 30.04 in 15.0 mi North 10.4 mph - N/A   Overcast
8:00 AM 32 °F - 28 °F 79% 30.07 in 15 mi North 4.6 mph - -   Overcast
8:00 AM 32.0 °F 25.6 °F 28.4 °F 87% 30.06 in 15.0 mi North 6.9 mph - N/A   Overcast
8:14 AM 32.0 °F 26.4 °F 28.4 °F 87% 30.07 in 12.0 mi North 5.8 mph - N/A Snow Light Snow Showers
9:00 AM 32.0 °F 26.4 °F 30.2 °F 93% 30.09 in 15.0 mi North 5.8 mph - N/A Snow Light Snow Showers
10:00 AM 33.8 °F 27.0 °F 30.2 °F 87% 30.09 in 15.0 mi North 8.1 mph - N/A Snow Light Snow Showers
11:00 AM 33.8 °F 25.8 °F 28.4 °F 81% 30.10 in 15.0 mi North 10.4 mph - N/A Snow Light Snow Showers
12:00 PM 33.8 °F 24.3 °F 28.4 °F 81% 30.10 in 15.0 mi NNE 13.8 mph - N/A Snow Light Snow Showers
12:41 PM 35.6 °F 28.0 °F 28.4 °F 75% 30.09 in 15.0 mi NNE 10.4 mph - N/A   Overcast
1:00 PM 33.8 °F 25.8 °F 21.2 °F 60% 30.17 in 15.0 mi ENE 10.4 mph - N/A   Mostly Cloudy
2:00 PM 34 °F - 29 °F 73% 30.09 in 15 mi North 9.2 mph - -   Mostly Cloudy
2:00 PM 33.8 °F 25.8 °F 28.4 °F 81% 30.09 in 15.0 mi North 10.4 mph - N/A   Mostly Cloudy
2:14 PM 35.6 °F 29.2 °F 30.2 °F 81% 30.09 in 15.0 mi North 8.1 mph - N/A Snow Light Snow Showers
2:17 PM 30.2 °F 22.6 °F 23.0 °F 75% 30.15 in 15.0 mi NNW 8.1 mph - N/A Snow Light Snow Showers
3:00 PM 33.8 °F 27.0 °F 30.2 °F 87% 30.11 in 12.0 mi NNE 8.1 mph - N/A Snow Light Snow Showers
4:00 PM 32.0 °F 27.5 °F 30.2 °F 93% 30.14 in 15.0 mi North 4.6 mph - N/A Snow Light Snow Showers
5:00 PM 32.0 °F 26.4 °F 30.2 °F 93% 30.14 in 12.0 mi North 5.8 mph - N/A Snow Light Snow Showers
6:00 PM 32.0 °F 25.6 °F 30.2 °F 93% 30.12 in 10.0 mi NNE 6.9 mph - N/A Snow Light Snow Showers
6:44 PM 32.0 °F 25.6 °F 30.2 °F 93% 30.12 in 15.0 mi NNE 6.9 mph - N/A   Overcast
7:00 PM 30.2 °F 24.3 °F 28.4 °F 93% 30.13 in 15.0 mi North 5.8 mph - N/A   Overcast
7:28 PM 30.2 °F 23.4 °F 30.2 °F 100% 30.14 in 15.0 mi NNE 6.9 mph - N/A   Overcast
8:00 PM 31 °F - 30 °F 96% 30.16 in 15 mi North 5.8 mph - -   Partly Cloudy
8:00 PM 32.0 °F 27.5 °F 30.2 °F 93% 30.15 in 15.0 mi North 4.6 mph - N/A   Overcast
8:34 PM 32.0 °F 27.5 °F 30.2 °F 93% 30.18 in 12.0 mi NNW 4.6 mph - N/A Snow Light Snow Showers
9:00 PM 32.0 °F 26.4 °F 30.2 °F 93% 30.17 in 6.0 mi North 5.8 mph - N/A Snow Light Snow Showers
10:00 PM 30.2 °F 23.4 °F 30.2 °F 100% 30.15 in 10.0 mi North 6.9 mph - N/A Snow Light Snow Showers
11:00 PM 28.4 °F 24.6 °F 28.4 °F 100% 30.14 in 15.0 mi North 3.5 mph - N/A Snow Light Snow Showers